Date String (YYYY-MM-DD hh:mm:ss) UTC,Instrument flags,Ambient pressure (hPa),Sample flow (lpm),Bypass flow (lpm),Sample temperature (°C),Ambient temperature (°C),ASC tube jacket temperature (°C),LED temperature (°C),Box temperature (°C),Sample RH (%),Span deviation,Mass concentration (μg/m³),Mass concentration (μg/m³),Mass concentration (μg/m³)
DateTimeUTC,F1_M11,P_M11,Q1_M11,Q2_M11,T1_M11,T2_M11,T3_M11,T4_M11,T5_M11,U1_M11,ZSPAN_M11,X2_M11,X0_M11,X1_M11
2023-05-05 06:00:00,,0826.0,4.99,0.00,30.6,29.1,00.0,39.0,32.0,18.7,0000.0,0003.72,0009.82,0002.10
2023-05-05 06:01:00,,0826.0,5.01,0.00,30.6,29.1,00.0,39.0,32.0,18.7,0000.0,0003.67,0009.40,0002.08
2023-05-05 06:02:00,,0826.1,5.00,0.00,30.6,29.1,00.0,39.0,32.1,18.7,0000.0,0003.61,0009.16,0002.06
2023-05-05 06:03:00,,0826.2,4.99,0.00,30.6,29.1,00.0,39.0,32.0,18.7,0000.0,0003.54,0008.99,0002.02
2023-05-05 06:04:00,,0826.1,5.01,0.00,30.6,29.1,00.0,39.0,32.0,18.7,0000.0,0003.55,0008.86,0002.00
2023-05-05 06:05:00,,0826.2,5.02,0.00,30.6,29.1,00.0,39.0,32.0,18.7,0000.0,0003.54,0008.51,0002.00
2023-05-05 06:06:00,,0826.2,4.99,0.00,30.6,29.1,00.0,39.0,32.0,18.7,0000.0,0003.58,0008.64,0002.01
2023-05-05 06:07:00,,0826.1,5.00,0.00,30.6,29.1,00.0,39.0,32.0,18.7,0000.0,0003.60,0008.62,0002.02
2023-05-05 06:08:00,,0826.2,5.01,0.00,30.6,29.1,00.0,39.0,32.0,18.7,0000.0,0003.60,0008.37,0002.04
2023-05-05 06:09:00,,0826.2,5.01,0.00,30.6,29.1,00.0,39.0,32.0,18.7,0000.0,0003.62,0008.51,0002.05
2023-05-05 06:10:00,,0826.1,5.00,0.00,30.6,29.0,00.0,39.0,32.0,18.8,0000.0,0003.64,0008.56,0002.07
2023-05-05 06:11:00,,0826.1,4.99,0.00,30.6,29.0,00.0,39.0,32.0,18.8,0000.0,0003.66,0008.65,0002.09
2023-05-05 06:12:00,,0826.1,5.01,0.00,30.5,28.9,00.0,39.0,32.0,18.8,0000.0,0003.72,0008.86,0002.12
2023-05-05 06:13:00,,0826.1,5.01,0.00,30.5,28.9,00.0,39.0,32.0,18.8,0000.0,0003.78,0009.20,0002.13
2023-05-05 06:14:00,,0826.1,4.99,0.00,30.5,28.9,00.0,39.0,32.0,18.9,0000.0,0003.78,0009.27,0002.15
2023-05-05 06:15:00,,0826.1,5.00,0.00,30.5,28.9,00.0,39.0,32.0,18.9,0000.0,0003.74,0009.29,0002.14
2023-05-05 06:16:00,,0826.2,5.01,0.00,30.5,28.9,00.0,39.0,32.0,18.9,0000.0,0003.73,0009.34,0002.13
2023-05-05 06:17:00,,0826.2,4.98,0.00,30.5,28.9,00.0,39.0,32.0,18.9,0000.0,0003.69,0008.91,0002.13
2023-05-05 06:18:00,,0826.2,5.00,0.00,30.5,28.9,00.0,39.0,32.0,18.9,0000.0,0003.70,0009.01,0002.12
2023-05-05 06:19:00,,0826.2,5.01,0.00,30.5,28.9,00.0,39.0,32.0,18.9,0000.0,0003.67,0009.37,0002.09
2023-05-05 06:20:00,,0826.1,5.00,0.00,30.5,28.9,00.0,39.0,32.0,18.9,0000.0,0003.63,0009.17,0002.09
2023-05-05 06:21:00,,0826.2,4.99,0.00,30.5,28.9,00.0,39.0,31.9,18.9,0000.0,0003.65,0009.36,0002.08
2023-05-05 06:22:00,,0826.2,4.99,0.00,30.5,28.9,00.0,39.0,31.9,18.9,0000.0,0003.67,0009.34,0002.08
2023-05-05 06:23:00,,0826.2,4.99,0.00,30.5,28.9,00.0,39.0,31.9,18.9,0000.0,0003.68,0009.29,0002.08
2023-05-05 06:24:00,,0826.2,5.01,0.00,30.5,28.9,00.0,39.0,31.9,19.0,0000.0,0003.66,0009.46,0002.08
2023-05-05 06:25:00,,0826.2,4.99,0.00,30.5,28.9,00.0,39.0,31.9,19.0,0000.0,0003.72,0009.73,0002.09
2023-05-05 06:26:00,,0826.2,4.99,0.00,30.5,28.9,00.0,38.9,31.9,19.0,0000.0,0003.83,0009.87,0002.09
2023-05-05 06:27:00,,0826.2,5.01,0.00,30.4,28.8,00.0,38.9,31.9,19.0,0000.0,0003.89,0009.86,0002.12
2023-05-05 06:28:00,,0826.2,5.00,0.00,30.4,28.8,00.0,38.9,31.8,19.1,0000.0,0003.98,0010.00,0002.14
2023-05-05 06:29:00,,0826.1,4.99,0.00,30.4,28.7,00.0,38.9,31.9,19.1,0000.0,0004.02,0010.30,0002.16
2023-05-05 06:30:00,,0826.1,4.99,0.00,30.4,28.7,00.0,38.9,31.9,19.1,0000.0,0004.08,0010.64,0002.19
2023-05-05 06:31:00,,0826.0,5.01,0.00,30.4,28.7,00.0,38.9,31.9,19.2,0000.0,0004.12,0011.24,0002.20
2023-05-05 06:32:00,,0826.0,5.00,0.00,30.4,28.7,00.0,38.9,31.9,19.2,0000.0,0004.15,0011.27,0002.21
2023-05-05 06:33:00,,0826.0,4.99,0.00,30.4,28.7,00.0,38.9,31.9,19.3,0000.0,0004.14,0011.28,0002.21
2023-05-05 06:34:00,,0826.0,4.99,0.00,30.4,28.7,00.0,38.9,31.9,19.4,0000.0,0004.16,0011.88,0002.23
2023-05-05 06:35:00,,0825.9,5.01,0.00,30.4,28.7,00.0,38.9,31.9,19.4,0000.0,0004.24,0012.00,0002.26
2023-05-05 06:36:00,,0825.8,5.01,0.00,30.4,28.7,00.0,38.9,31.9,19.5,0000.0,0004.26,0011.82,0002.27
2023-05-05 06:37:00,,0825.9,4.99,0.00,30.4,28.7,00.0,38.8,31.9,19.5,0000.0,0004.23,0011.76,0002.32
2023-05-05 06:38:00,,0825.9,4.99,0.00,30.4,28.8,00.0,38.8,31.9,19.4,0000.0,0004.21,0011.64,0002.34
2023-05-05 06:39:00,,0825.9,5.00,0.00,30.4,28.8,00.0,38.8,31.8,19.3,0000.0,0004.20,0011.57,0002.35
2023-05-05 06:40:00,,0825.9,5.00,0.00,30.4,28.8,00.0,38.8,31.8,19.2,0000.0,0004.20,0011.43,0002.34
2023-05-05 06:41:00,,0825.9,4.99,0.00,30.4,28.8,00.0,38.8,31.8,19.2,0000.0,0004.24,0011.30,0002.33
2023-05-05 06:42:00,,0825.9,4.99,0.00,30.4,28.8,00.0,38.8,31.8,19.0,0000.0,0004.16,0010.23,0002.32
2023-05-05 06:43:00,,0825.9,5.00,0.00,30.4,28.8,00.0,38.8,31.8,19.1,0000.0,0004.10,0010.21,0002.30
2023-05-05 06:44:00,,0826.0,5.01,0.00,30.4,28.8,00.0,38.8,31.8,19.2,0000.0,0004.09,0010.34,0002.30
2023-05-05 06:45:00,,0826.0,5.01,0.00,30.4,28.8,00.0,38.8,31.7,19.3,0000.0,0004.10,0010.10,0002.30
2023-05-05 06:46:00,,0826.0,5.00,0.00,30.4,28.7,00.0,38.8,31.7,19.3,0000.0,0004.03,0009.70,0002.29
2023-05-05 06:47:00,,0826.0,4.99,0.00,30.4,28.7,00.0,38.8,31.7,19.4,0000.0,0003.99,0009.67,0002.29
2023-05-05 06:48:00,,0826.1,5.00,0.00,30.3,28.7,00.0,38.8,31.7,19.4,0000.0,0003.97,0009.70,0002.26
2023-05-05 06:49:00,,0826.2,5.01,0.00,30.3,28.7,00.0,38.8,31.7,19.6,0000.0,0004.04,0010.72,0002.26
2023-05-05 06:50:00,,0826.2,5.00,0.00,30.3,28.7,00.0,38.8,31.7,19.7,0000.0,0004.10,0011.67,0002.27
2023-05-05 06:51:00,,0826.3,5.00,0.00,30.3,28.6,00.0,38.8,31.7,19.8,0000.0,0004.13,0011.74,0002.29
2023-05-05 06:52:00,,0826.3,5.00,0.00,30.3,28.6,00.0,38.8,31.6,19.9,0000.0,0004.08,0011.53,0002.32
2023-05-05 06:53:00,,0826.4,4.99,0.00,30.3,28.6,00.0,38.8,31.6,20.0,0000.0,0004.16,0011.69,0002.35
2023-05-05 06:54:00,,0826.6,5.01,0.00,30.2,28.5,00.0,38.7,31.6,20.0,0000.0,0004.24,0011.89,0002.39
2023-05-05 06:55:00,,0826.6,5.00,0.00,30.2,28.4,00.0,38.7,31.5,20.0,0000.0,0004.25,0011.72,0002.41
2023-05-05 06:56:00,,0826.6,5.00,0.00,30.1,28.2,00.0,38.7,31.4,20.0,0000.0,0004.27,0012.22,0002.43
2023-05-05 06:57:00,,0826.7,5.00,0.00,30.0,28.1,00.0,38.7,31.4,20.0,0000.0,0004.31,0012.14,0002.43
2023-05-05 06:58:00,,0826.7,5.00,0.00,30.0,28.0,00.0,38.6,31.3,20.1,0000.0,0004.36,0012.13,0002.44
2023-05-05 06:59:00,,0826.8,5.01,0.00,29.9,27.9,00.0,38.6,31.2,20.2,0000.0,0004.40,0012.09,0002.47
